Tracking 18957 objects as of 22-Jan-2018
HD Live streaming from Space Station
objects crossing your sky now

NIMBUS 2 DEB

Track NIMBUS 2 DEB now!
10-day predictions


NORAD ID: 39294
Int'l Code: 1966-040BC
Perigee: 1,079.9 km
Apogee: 1,167.3 km
Inclination: 100.4 °
Period: 107.6 minutes
Semi major axis: 7494 km
RCS: 0.0217 m2 (small)
Launch date: May 15, 1966
Source: United States (US)
Launch site: AIR FORCE WESTERN TEST RANGE (AFWTR)

Note: This is SATELLITE DEBRIS
aabbcc
Your satellite tracking list
Your tracking list is empty




NASA's NSSDC Master Catalog

Two Line Element Set (TLE):
1 39294U 66040BC  18021.59460502 +.00000559 +00000-0 +11372-2 0  9991
2 39294 100.4229 156.8928 0058307 277.1757 082.2741 13.38083242208340
Source of the keplerian elements: AFSPC